sat.trackr.live / text

‹ back to catalog

GEESAT-1 05

NORAD 52789 · 2022-058E

PAYLOAD ACTIVE UNKNOWN

§ Identity

Operator
Country
PRC
Launch date
2022-06-02
Launch site
XICLF
Launch vehicle
Mass (kg)
RCS (m²)

External: N2YO · Heavens-Above · Gunter

§ Orbital elements

Epoch: 2026-09-20T21:09:12.145248Z

Period
95.92 min
Inclination
49.9857°
Eccentricity
0.0002887
Mean motion
15.01317766 rev/d
Perigee alt
560.8 km
Apogee alt
564.8 km
Semi-major
6,941.0 km
B*
2.1945e-4
RAAN
84.9189°
Arg perigee
148.1547°
Mean anomaly
211.9573°
Rev number
23,458

§ Raw data

GEESAT-1 051 52789U 22058E   26263.88139057  .00002594  00000+0  21945-3 0  99912 52789  49.9857  84.9189 0002887 148.1547 211.9573 15.01317766234586

JSON: /api/v1/satellites/52789 · /tle

For live sub-satellite position, see the globe view (requires WebGL).

§ Visibility from observer

Set your observer location to see the next 7 days of passes ≥ 10°. The values pass through the URL so the page stays shareable.

No JS? Fill the form by hand. The geolocation button needs JavaScript.